Woodruff, WI

4:58 AM CST on January 19, 2017 (GMT -0600)
Lakeland-Lee Memorial

Weather History for KARV - January, 2013

Change the Weather History Date:

Thursday, January 24, 2013

  Actual Average Record
Temperature  
Mean Temperature -5 °F -  
Max Temperature 8 °F 22 °F 56 °F (1944)
Min Temperature -18 °F 2 °F -40 °F (1922)
Degree Days  
Heating Degree Days 70    
Moisture  
Dew Point -10 °F    
Average Humidity 68    
Maximum Humidity 85    
Minimum Humidity 48    
Precipitation  
Precipitation 0.00 in - - ()
Sea Level Pressure  
Sea Level Pressure 30.41 in    
Wind  
Wind Speed 2 mph (South)    
Max Wind Speed 12 mph    
Max Gust Speed -    
Visibility 9 miles    
Events Snow    
Averages and records for this station are not official NWS values.
T = Trace of Precipitation, MM = Missing Value Source: NWS Daily Summary

Daily Weather History Graph

Daily Weather History Graph

Search for Another Location

Airport or City:

Trip Planner

Search our weather history database for the weather conditions in past years. The results will help you decide how hot, cold, wet, or windy it might be!

Date:

Astronomy

Jan. 24, 2013 Rise Set
Actual Time 7:29 AM CST 4:53 PM CST
Civil Twilight 6:56 AM CST 5:25 PM CST
Nautical Twilight 6:20 AM CST 6:02 PM CST
Astronomical Twilight 5:45 AM CST 6:37 PM CST
Moon 2:53 PM CST (1/24) 5:29 AM CST (1/24)
Length of Visible Light 10h 29m
Length of Day
9h 23m
Waxing Gibbous, 94% of the Moon is Illuminated
Jan 24
Waxing Gibbous
Jan 26
Full
Feb 3
Last Quarter
Feb 10
New
Feb 17
First Quarter

Hourly Weather History & Observations

Time (CST) Temp. Windchill Dew Point Humidity Pressure Visibility Wind Dir Wind Speed Gust Speed Precip Events Conditions
12:15 AM -4.0 °F - -7.6 °F 85% 30.39 in 7.0 mi Calm Calm - N/A Snow Light Snow
12:35 AM -5.8 °F - -11.2 °F 77% 30.40 in 7.0 mi Calm Calm - N/A Snow Light Snow
12:55 AM -5.8 °F - -9.4 °F 84% 30.41 in 10.0 mi Calm Calm - N/A   Clear
1:15 AM -7.6 °F - -13.0 °F 77% 30.42 in 10.0 mi Calm Calm - N/A   Scattered Clouds
1:35 AM -7.6 °F - -13.0 °F 77% 30.42 in 10.0 mi Calm Calm - N/A   Scattered Clouds
1:55 AM -7.6 °F - -13.0 °F 77% 30.42 in 10.0 mi Calm Calm - N/A   Scattered Clouds
2:15 AM -9.4 °F - -14.8 °F 77% 30.44 in 10.0 mi Calm Calm - N/A   Clear
2:35 AM -7.6 °F - -13.0 °F 77% 30.45 in 10.0 mi Calm Calm - N/A   Clear
2:55 AM -9.4 °F - -14.8 °F 77% 30.46 in 10.0 mi Calm Calm - N/A   Clear
3:15 AM -9.4 °F - -16.6 °F 71% 30.46 in 10.0 mi Calm Calm - N/A   Clear
3:35 AM -9.4 °F -18.6 °F -14.8 °F 77% 30.46 in 10.0 mi North 3.5 mph - N/A   Clear
3:55 AM -9.4 °F -18.6 °F -14.8 °F 77% 30.46 in 10.0 mi North 3.5 mph - N/A   Clear
4:15 AM -9.4 °F - -14.8 °F 77% 30.46 in 10.0 mi Calm Calm - N/A   Clear
4:35 AM -11.2 °F - -16.6 °F 77% 30.47 in 10.0 mi Calm Calm - N/A   Clear
4:55 AM -13.0 °F - -18.4 °F 77% 30.48 in 10.0 mi Calm Calm - N/A   Clear
5:15 AM -14.8 °F - -18.4 °F 84% 30.48 in 10.0 mi Calm Calm - N/A   Clear
5:35 AM -14.8 °F - -22.0 °F 70% 30.48 in 10.0 mi Calm Calm - N/A   Clear
5:55 AM -16.6 °F - -23.8 °F 70% 30.49 in 10.0 mi Calm Calm - N/A   Clear
6:15 AM -14.8 °F - -22.0 °F 70% 30.51 in 10.0 mi Calm Calm - N/A   Clear
6:35 AM -16.6 °F - -23.8 °F 70% 30.51 in 7.0 mi Calm Calm - N/A   Clear
6:55 AM -16.6 °F - -23.8 °F 70% 30.51 in 5.0 mi Calm Calm - N/A   Haze
7:15 AM -16.6 °F - -23.8 °F 70% 30.52 in 5.0 mi Calm Calm - N/A   Haze
7:35 AM -18.4 °F - -25.6 °F 70% 30.53 in 4.0 mi Calm Calm - N/A   Haze
7:55 AM -16.6 °F - -23.8 °F 70% 30.53 in 10.0 mi Calm Calm - N/A   Clear
8:15 AM -16.6 °F - -23.8 °F 70% 30.53 in 10.0 mi Calm Calm - N/A   Clear
8:35 AM -16.6 °F - -23.8 °F 70% 30.53 in 10.0 mi Calm Calm - N/A   Clear
8:55 AM -14.8 °F - -22.0 °F 70% 30.53 in 10.0 mi Calm Calm - N/A   Clear
9:15 AM -9.4 °F - -16.6 °F 71% 30.52 in 10.0 mi Calm Calm - N/A   Clear
9:35 AM -7.6 °F - -14.8 °F 71% 30.51 in 10.0 mi Calm Calm - N/A   Clear
9:55 AM -7.6 °F - -13.0 °F 77% 30.51 in 10.0 mi Calm Calm - N/A   Clear
10:15 AM -4.0 °F - -7.6 °F 85% 30.51 in 10.0 mi Calm Calm - N/A   Clear
10:35 AM -2.2 °F - -7.6 °F 78% 30.51 in 10.0 mi Calm Calm - N/A   Clear
10:55 AM -0.4 °F -8.3 °F -5.8 °F 78% 30.51 in 10.0 mi SSE 3.5 mph - N/A   Clear
11:15 AM 1.4 °F -6.2 °F -5.8 °F 72% 30.50 in 10.0 mi ESE 3.5 mph - N/A   Clear
11:35 AM 1.4 °F - -5.8 °F 72% 30.50 in 10.0 mi Calm Calm - N/A   Clear
11:55 AM 3.2 °F -7.8 °F -5.8 °F 66% 30.49 in 10.0 mi SSW 5.8 mph - N/A   Clear
12:15 PM 3.2 °F - -5.8 °F 66% 30.49 in 10.0 mi Calm Calm - N/A   Clear
12:35 PM 3.2 °F - -7.6 °F 61% 30.48 in 10.0 mi Calm Calm - N/A   Clear
12:55 PM 5.0 °F -4.1 °F -7.6 °F 56% 30.46 in 10.0 mi South 4.6 mph - N/A   Clear
1:15 PM 5.0 °F -2.1 °F -7.6 °F 56% 30.45 in 10.0 mi SE 3.5 mph - N/A   Clear
1:35 PM 5.0 °F - -7.6 °F 56% 30.44 in 10.0 mi Calm Calm - N/A   Clear
1:55 PM 5.0 °F -2.1 °F -7.6 °F 56% 30.43 in 10.0 mi South 3.5 mph - N/A   Clear
2:15 PM 5.0 °F -2.1 °F -5.8 °F 61% 30.44 in 10.0 mi SSW 3.5 mph - N/A   Clear
2:55 PM 6.8 °F -0.1 °F -7.6 °F 52% 30.42 in 10.0 mi SE 3.5 mph - N/A   Clear
3:15 PM 8.6 °F 0.1 °F -5.8 °F 52% 30.42 in 10.0 mi SSE 4.6 mph - N/A   Clear
3:35 PM 8.6 °F -2.6 °F -7.6 °F 48% 30.41 in 10.0 mi South 6.9 mph - N/A   Clear
3:55 PM 8.6 °F -1.3 °F -7.6 °F 48% 30.41 in 10.0 mi South 5.8 mph - N/A   Scattered Clouds
4:15 PM 6.8 °F -4.8 °F -7.6 °F 52% 30.39 in 10.0 mi SSW 6.9 mph - N/A   Mostly Cloudy
4:35 PM 6.8 °F -2.0 °F -7.6 °F 52% 30.38 in 10.0 mi South 4.6 mph - N/A   Overcast
4:55 PM 8.6 °F -1.3 °F -7.6 °F 48% 30.37 in 10.0 mi South 5.8 mph - N/A   Overcast
5:15 PM 8.6 °F 2.0 °F -7.6 °F 48% 30.35 in 10.0 mi South 3.5 mph - N/A   Overcast
5:35 PM 8.6 °F -2.6 °F -7.6 °F 48% 30.34 in 10.0 mi South 6.9 mph - N/A   Overcast
5:55 PM 6.8 °F -2.0 °F -7.6 °F 52% 30.33 in 10.0 mi South 4.6 mph - N/A   Overcast
6:15 PM 6.8 °F -0.1 °F -7.6 °F 52% 30.34 in 10.0 mi South 3.5 mph - N/A   Mostly Cloudy
6:35 PM 6.8 °F -3.5 °F -7.6 °F 52% 30.32 in 10.0 mi South 5.8 mph - N/A   Mostly Cloudy
6:55 PM 6.8 °F -4.8 °F -5.8 °F 56% 30.32 in 10.0 mi SSE 6.9 mph - N/A   Overcast
7:15 PM 8.6 °F 0.1 °F -5.8 °F 52% 30.32 in 10.0 mi South 4.6 mph - N/A   Overcast
7:35 PM 8.6 °F -3.7 °F -5.8 °F 52% 30.32 in 10.0 mi South 8.1 mph - N/A   Overcast
7:55 PM 8.6 °F -1.3 °F -5.8 °F 52% 30.30 in 10.0 mi South 5.8 mph - N/A   Overcast
8:15 PM 8.6 °F -1.3 °F -4.0 °F 57% 30.29 in 10.0 mi South 5.8 mph - N/A   Overcast
8:35 PM 6.8 °F -4.8 °F -2.2 °F 67% 30.28 in 3.0 mi South 6.9 mph - N/A Snow Light Snow
8:55 PM 6.8 °F -4.8 °F -0.4 °F 72% 30.25 in 2.5 mi SSE 6.9 mph - N/A Snow Light Snow
9:15 PM 6.8 °F -4.8 °F 1.4 °F 79% 30.25 in 2.5 mi SSE 6.9 mph - N/A Snow Light Snow
9:35 PM 6.8 °F -2.0 °F 1.4 °F 79% 30.25 in 2.0 mi South 4.6 mph - N/A Snow Light Snow
9:55 PM 6.8 °F -4.8 °F 1.4 °F 79% 30.25 in 2.0 mi SSE 6.9 mph - N/A Snow Light Snow
10:15 PM 6.8 °F -5.9 °F 1.4 °F 79% 30.23 in 1.2 mi SSE 8.1 mph - N/A Snow Light Snow
10:35 PM 6.8 °F -5.9 °F 1.4 °F 79% 30.22 in 1.2 mi SSE 8.1 mph - N/A Snow Light Snow
10:55 PM 6.8 °F -4.8 °F 1.4 °F 79% 30.22 in 1.0 mi SSE 6.9 mph - N/A Snow Snow
11:15 PM 6.8 °F -3.5 °F 1.4 °F 79% 30.21 in 3.0 mi SSE 5.8 mph - N/A Snow Light Snow
11:35 PM 8.6 °F -3.7 °F 3.2 °F 79% 30.20 in 10.0 mi South 8.1 mph - N/A   Mostly Cloudy
11:55 PM 8.6 °F -6.3 °F 3.2 °F 79% 30.18 in 10.0 mi South 11.5 mph - N/A Snow Light Snow